Regional Weather Roundup
Issued by NWS

Home | Current Version | Previous Version | Graphics & Text | Print | Product List | Glossary On
Versions: 1 2 3 4 5 6 7 8 9 10 11 12 13 14 15 16 17 18 19 20 21 22 23 24 25 26 27 28 29 30 31 32 33 34 35 36 37 38 39 40 41 42 43 44 45 46 47 48 49 50
000
ASUS43 KBIS 290101
RWRND

NORTH DAKOTA REGIONAL WEATHER ROUNDUP
NATIONAL WEATHER SERVICE BISMARCK ND
700 PM CST WED JAN 28 2015

NOTE: "FAIR" INDICATES FEW OR NO CLOUDS BELOW 12,000 FEET WITH NO
SIGNIFICANT WEATHER AND/OR OBSTRUCTIONS TO VISIBILITY.


NDZ001>003-009>011-017-290200-
NORTHWEST NORTH DAKOTA

CITY           SKY/WX    TMP DP  RH WIND       PRES   REMARKS
WILLISTON      CLOUDY    34  29  82 NW20G26   30.22R
MINOT          CLOUDY    28  25  88 NW23G30   30.11R WCI  14
MINOT AFB      CLOUDY    29  28  99 NW25G31   30.10R WCI  14
$$

NDZ018>021-031>035-040>046-290200-
SOUTHWEST NORTH DAKOTA

CITY           SKY/WX    TMP DP  RH WIND       PRES   REMARKS
BISMARCK       CLOUDY    32  28  85 NW23G30   30.09R WCI  19
DICKINSON      CLOUDY    33  29  85 NW23G31   30.14R
GARRISON         N/A     30  27  88 NW23G33   30.11R WCI  17
HETTINGER ARPT CLOUDY    33  29  85 NW30G40   30.14R WCI  19
$$

NDZ004>008-012>016-024-026-027-054-290200-
NORTHEAST NORTH DAKOTA

CITY           SKY/WX    TMP DP  RH WIND       PRES   REMARKS
GRAND FORKS    FRZ DRZL  31  29  92 NW24      29.93R FOG     WCI  17
GRND FRKS AFB  CLOUDY    30  28  92 N18       29.95R WCI  17
DEVILS LAKE    CLOUDY    27  23  86 NW21      29.99R WCI  13
$$

NDZ022-023-025-028>030-036>039-047>053-290200-
SOUTHEAST NORTH DAKOTA

CITY           SKY/WX    TMP DP  RH WIND       PRES   REMARKS
FARGO          CLOUDY    34  32  92 NW18G25   29.89R FOG
JAMESTOWN      CLOUDY    30  27  88 N23G35    29.96R WCI  17
$$



USA.gov is the U.S. government's official web portal to all federal, state and local government web resources and services.